VTK501 OMDB-UTAA

Flight info

Callsign VTK501
Flight time 1h 55m
Altitude 34000
Route N0470F340 DAVMO M318 RIKOP
Aircraft A21N/M-SDE2E3FGHIJ1RWXY/L

Departure

Time 2026-04-15 08:24
Airport Dubai International Airport (OMDB)

Arrival

Time 2026-04-15 10:19
Airport Ashgabat International Airport (UTAA)
Time Latitude Longitude Altitude Speed Heading
2026-04-15 08:03 25.23484 55.38899 24 ft 0 kts 225°
2026-04-15 08:18 25.23494 55.38911 26 ft 4 kts 225°
2026-04-15 08:18 25.23513 55.38932 26 ft 4 kts 225°
2026-04-15 08:18 25.23532 55.38953 27 ft 4 kts 225°
2026-04-15 08:18 25.23551 55.38974 27 ft 4 kts 225°
2026-04-15 08:19 25.23565 55.38989 27 ft 1 kts 225°
2026-04-15 08:19 25.23567 55.38992 27 ft 0 kts 225°
2026-04-15 08:22 25.23567 55.38991 27 ft 2 kts 225°
2026-04-15 08:22 25.23612 55.38999 27 ft 20 kts 54°
2026-04-15 08:22 25.23736 55.39048 30 ft 22 kts 334°
2026-04-15 08:22 25.23868 55.38949 29 ft 24 kts 323°
2026-04-15 08:23 25.23952 55.38788 29 ft 26 kts 307°
2026-04-15 08:23 25.24074 55.38610 29 ft 47 kts 297°
2026-04-15 08:23 25.24377 55.38045 31 ft 123 kts 298°
2026-04-15 08:23 25.24951 55.37065 36 ft 180 kts 304°
2026-04-15 08:24 25.25605 55.36068 1089 ft 152 kts 302°
2026-04-15 08:24 25.26242 55.35138 1810 ft 158 kts 294°
2026-04-15 08:24 25.26782 55.33981 2332 ft 183 kts 298°
2026-04-15 08:24 25.27522 55.32753 3075 ft 200 kts 300°
2026-04-15 08:25 25.28354 55.31403 3754 ft 222 kts 302°
2026-04-15 08:25 25.29390 55.30119 4716 ft 230 kts 322°
2026-04-15 08:25 25.30876 55.29453 5730 ft 236 kts 349°
2026-04-15 08:25 25.32516 55.29428 6757 ft 238 kts 358°
2026-04-15 08:26 25.34142 55.29503 7661 ft 243 kts 358°
2026-04-15 08:26 25.35849 55.29572 8582 ft 248 kts 357°
2026-04-15 08:26 25.37533 55.29628 9478 ft 251 kts 356°
2026-04-15 08:26 25.39291 55.29701 10314 ft 257 kts
2026-04-15 08:27 25.41073 55.30202 10920 ft 278 kts 17°
2026-04-15 08:27 25.42936 55.31069 11283 ft 304 kts 19°
2026-04-15 08:27 25.44943 55.32041 11682 ft 326 kts 19°
2026-04-15 08:27 25.47080 55.33062 12163 ft 344 kts 19°
2026-04-15 08:28 25.49325 55.34119 12777 ft 357 kts 19°
2026-04-15 08:28 25.51630 55.35199 13608 ft 362 kts 20°
2026-04-15 08:28 25.53959 55.36289 14373 ft 366 kts 20°
2026-04-15 08:28 25.56318 55.37391 15125 ft 371 kts 20°
2026-04-15 08:29 25.58619 55.38714 15844 ft 379 kts 30°
2026-04-15 08:29 25.60800 55.40381 16587 ft 384 kts 33°
2026-04-15 08:29 25.62981 55.42109 17311 ft 389 kts 33°
2026-04-15 08:29 25.65187 55.43852 18027 ft 393 kts 33°
2026-04-15 08:30 25.67369 55.45712 18655 ft 400 kts 39°
2026-04-15 08:30 25.69413 55.47816 19275 ft 404 kts 41°
2026-04-15 08:30 25.71455 55.49970 19903 ft 408 kts 41°
2026-04-15 08:30 25.73516 55.52145 20527 ft 412 kts 41°
2026-04-15 08:31 25.75600 55.54340 21154 ft 416 kts 41°
2026-04-15 08:31 25.77710 55.56554 21784 ft 421 kts 41°
2026-04-15 08:31 25.79842 55.58791 22420 ft 425 kts 41°
2026-04-15 08:31 25.81995 55.61056 23052 ft 429 kts 41°
2026-04-15 08:32 25.84166 55.63339 23643 ft 433 kts 41°
2026-04-15 08:32 25.86465 55.65493 24122 ft 435 kts 32°
2026-04-15 08:32 25.88994 55.67342 24611 ft 438 kts 30°
2026-04-15 08:32 25.91567 55.69159 25090 ft 442 kts 30°
2026-04-15 08:33 25.94170 55.70993 25563 ft 445 kts 30°
2026-04-15 08:33 25.96790 55.72839 26029 ft 449 kts 30°
2026-04-15 08:33 25.99435 55.74698 26485 ft 453 kts 30°
2026-04-15 08:33 26.02104 55.76578 26929 ft 456 kts 30°
2026-04-15 08:34 26.04895 55.78236 27339 ft 457 kts 20°
2026-04-15 08:34 26.07914 55.79272 27738 ft 455 kts
2026-04-15 08:34 26.11047 55.79579 28126 ft 453 kts 355°
2026-04-15 08:34 26.14187 55.79362 28550 ft 454 kts 351°
2026-04-15 08:35 26.17343 55.79078 28932 ft 458 kts 352°
2026-04-15 08:35 26.20552 55.79082 29304 ft 467 kts
2026-04-15 08:35 26.23784 55.79649 29690 ft 473 kts
2026-04-15 08:35 26.27014 55.80364 30049 ft 477 kts
2026-04-15 08:36 26.30273 55.81095 30384 ft 480 kts
2026-04-15 08:36 26.33545 55.81806 30712 ft 482 kts
2026-04-15 08:36 26.36844 55.82500 31077 ft 483 kts
2026-04-15 08:36 26.40138 55.83190 31499 ft 482 kts
2026-04-15 08:37 26.43429 55.83877 31896 ft 483 kts
2026-04-15 08:37 26.46725 55.84564 32291 ft 483 kts
2026-04-15 08:37 26.50023 55.85255 32684 ft 483 kts
2026-04-15 08:37 26.53316 55.85944 33053 ft 483 kts
2026-04-15 08:38 26.56604 55.86633 33436 ft 482 kts
2026-04-15 08:38 26.59898 55.87325 33816 ft 482 kts
2026-04-15 08:38 26.63189 55.88015 34129 ft 482 kts
2026-04-15 08:38 26.66478 55.88704 34447 ft 482 kts
2026-04-15 08:39 26.69770 55.89392 34737 ft 482 kts
2026-04-15 08:39 26.73066 55.90087 35026 ft 482 kts
2026-04-15 08:39 26.76351 55.90748 35313 ft 480 kts
2026-04-15 08:39 26.79658 55.91189 35588 ft 479 kts
2026-04-15 08:40 26.82965 55.91595 35860 ft 478 kts
2026-04-15 08:40 26.86262 55.91998 36117 ft 479 kts
2026-04-15 08:40 26.89569 55.92397 36371 ft 478 kts
2026-04-15 08:40 26.92875 55.92796 36621 ft 478 kts
2026-04-15 08:41 26.96173 55.93200 36863 ft 479 kts
2026-04-15 08:41 27.02778 55.94021 36911 ft 477 kts
2026-04-15 08:42 27.09355 55.94826 36877 ft 477 kts
2026-04-15 08:42 27.15944 55.95636 36879 ft 477 kts
2026-04-15 08:43 27.22531 55.96453 36887 ft 477 kts 360°
2026-04-15 08:43 27.29108 55.97262 36872 ft 477 kts 360°
2026-04-15 08:44 27.35688 55.98073 36861 ft 478 kts 360°
2026-04-15 08:44 27.42270 55.98891 36889 ft 477 kts 360°
2026-04-15 08:45 27.48853 55.99704 36888 ft 475 kts 359°
2026-04-15 08:45 27.55403 56.00516 36875 ft 475 kts 359°
2026-04-15 08:46 27.61968 56.01333 36882 ft 475 kts 359°
2026-04-15 08:46 27.68530 56.02152 36887 ft 476 kts 359°
2026-04-15 08:47 27.75085 56.02968 36900 ft 474 kts 359°
2026-04-15 08:47 27.81651 56.03786 36881 ft 474 kts 359°
2026-04-15 08:48 27.88195 56.04600 36896 ft 474 kts 359°
2026-04-15 08:48 27.94723 56.05415 36897 ft 474 kts 359°
2026-04-15 08:49 28.01251 56.06234 36908 ft 470 kts 359°
2026-04-15 08:49 28.07731 56.07050 36887 ft 469 kts 358°
2026-04-15 08:50 28.14214 56.07860 36890 ft 470 kts 358°
2026-04-15 08:50 28.20707 56.08722 36885 ft 471 kts 359°
2026-04-15 08:51 28.27181 56.09659 36888 ft 470 kts 359°
2026-04-15 08:51 28.33651 56.10583 36894 ft 470 kts 359°
2026-04-15 08:52 28.40139 56.11507 36902 ft 470 kts 359°
2026-04-15 08:52 28.46607 56.12433 36906 ft 470 kts 359°
2026-04-15 08:53 28.53056 56.13358 36929 ft 465 kts 359°
2026-04-15 08:53 28.59467 56.14265 36935 ft 465 kts 359°
2026-04-15 08:54 28.65875 56.15178 36935 ft 465 kts 359°
2026-04-15 08:54 28.72279 56.16095 36956 ft 466 kts 359°
2026-04-15 08:55 28.78678 56.17017 36969 ft 463 kts 358°
2026-04-15 08:55 28.85054 56.17927 36969 ft 463 kts 358°
2026-04-15 08:56 28.91427 56.18839 36970 ft 463 kts 358°
2026-04-15 08:56 28.97807 56.19758 36972 ft 463 kts 359°
2026-04-15 08:57 29.04132 56.20677 36984 ft 455 kts 358°
2026-04-15 08:57 29.10418 56.21559 36976 ft 456 kts 358°
2026-04-15 08:58 29.16699 56.22454 36976 ft 457 kts 358°
2026-04-15 08:58 29.26141 56.23815 36977 ft 457 kts 358°
2026-04-15 08:59 29.32432 56.24719 36987 ft 456 kts 358°
2026-04-15 08:59 29.38708 56.25627 36986 ft 456 kts 358°
2026-04-15 09:00 29.44989 56.26531 37002 ft 456 kts 358°
2026-04-15 09:00 29.51265 56.27441 37032 ft 454 kts 358°
2026-04-15 09:01 29.57497 56.28343 37006 ft 452 kts 357°
2026-04-15 09:01 29.63732 56.29245 37015 ft 452 kts 357°
2026-04-15 09:02 29.69961 56.30147 37028 ft 452 kts 357°
2026-04-15 09:02 29.76194 56.31052 37035 ft 453 kts 357°
2026-04-15 09:03 29.82441 56.31959 37005 ft 455 kts 357°
2026-04-15 09:03 29.88701 56.32873 37005 ft 454 kts 357°
2026-04-15 09:04 29.94957 56.33791 36975 ft 454 kts 357°
2026-04-15 09:04 30.01215 56.34700 36983 ft 456 kts 356°
2026-04-15 09:05 30.07521 56.35618 36966 ft 458 kts 357°
2026-04-15 09:05 30.13839 56.36544 36949 ft 458 kts 356°
2026-04-15 09:06 30.20069 56.37462 36938 ft 458 kts 356°
2026-04-15 09:06 30.26378 56.38375 36951 ft 459 kts 356°
2026-04-15 09:07 30.32733 56.39290 36933 ft 461 kts 356°
2026-04-15 09:07 30.39085 56.40217 36927 ft 461 kts 356°
2026-04-15 09:08 30.45440 56.41142 36931 ft 461 kts 356°
2026-04-15 09:08 30.51802 56.42065 36951 ft 464 kts 357°
2026-04-15 09:09 30.58215 56.43003 36925 ft 466 kts 357°
2026-04-15 09:09 30.64636 56.43939 36933 ft 466 kts 357°
2026-04-15 09:10 30.71060 56.44879 36941 ft 466 kts 357°
2026-04-15 09:10 30.77486 56.45819 36942 ft 468 kts 356°
2026-04-15 09:11 30.83958 56.46768 36946 ft 469 kts 357°
2026-04-15 09:11 30.90427 56.47722 36950 ft 469 kts 356°
2026-04-15 09:12 30.96892 56.48668 36948 ft 469 kts 356°
2026-04-15 09:12 31.03363 56.49611 36972 ft 471 kts 356°
2026-04-15 09:13 31.09853 56.50562 36962 ft 472 kts 356°
2026-04-15 09:13 31.16366 56.51512 36953 ft 473 kts 356°
2026-04-15 09:14 31.22876 56.52463 36989 ft 471 kts 356°
2026-04-15 09:14 31.29368 56.53414 36951 ft 469 kts 356°
2026-04-15 09:15 31.35802 56.54357 36919 ft 466 kts 355°
2026-04-15 09:15 31.42248 56.55303 36962 ft 470 kts 356°
2026-04-15 09:16 31.48721 56.56254 36958 ft 468 kts 356°
2026-04-15 09:16 31.55153 56.57197 36953 ft 468 kts 355°
2026-04-15 09:17 31.61602 56.58154 36938 ft 468 kts 356°
2026-04-15 09:17 31.68061 56.59107 36935 ft 469 kts 356°
2026-04-15 09:18 31.74528 56.60061 36929 ft 470 kts 356°
2026-04-15 09:18 31.81011 56.61020 36926 ft 468 kts 356°
2026-04-15 09:19 31.87447 56.61973 36918 ft 467 kts 356°
2026-04-15 09:19 31.93893 56.62937 36908 ft 468 kts 356°
2026-04-15 09:20 32.00331 56.63890 36917 ft 466 kts 356°
2026-04-15 09:20 32.06752 56.64845 36904 ft 466 kts 356°
2026-04-15 09:21 32.13182 56.65801 36903 ft 468 kts 356°
2026-04-15 09:21 32.19504 56.66753 36933 ft 467 kts 356°
2026-04-15 09:22 32.25935 56.67713 36916 ft 467 kts 356°
2026-04-15 09:22 32.32362 56.68672 36906 ft 467 kts 356°
2026-04-15 09:23 32.38800 56.69638 36916 ft 467 kts 356°
2026-04-15 09:23 32.45229 56.70606 36968 ft 465 kts 356°
2026-04-15 09:24 32.51624 56.71567 36926 ft 465 kts 356°
2026-04-15 09:24 32.58035 56.72532 36927 ft 466 kts 356°
2026-04-15 09:25 32.64456 56.73497 36927 ft 466 kts 356°
2026-04-15 09:25 32.70882 56.74474 36923 ft 466 kts 356°
2026-04-15 09:26 32.77299 56.75445 36927 ft 466 kts 356°
2026-04-15 09:26 32.83723 56.76417 36926 ft 466 kts 356°
2026-04-15 09:27 32.90139 56.77389 36980 ft 466 kts 356°
2026-04-15 09:27 32.96543 56.78362 36946 ft 465 kts 356°
2026-04-15 09:28 33.02944 56.79337 36924 ft 465 kts 356°
2026-04-15 09:28 33.09355 56.80314 36924 ft 465 kts 356°
2026-04-15 09:29 33.15756 56.81289 36933 ft 465 kts 357°
2026-04-15 09:29 33.22158 56.82268 36928 ft 465 kts 357°
2026-04-15 09:30 33.28571 56.83251 36930 ft 465 kts 357°
2026-04-15 09:30 33.34982 56.84228 36940 ft 465 kts 357°
2026-04-15 09:31 33.41393 56.85217 36944 ft 465 kts 357°
2026-04-15 09:31 33.47793 56.86198 36935 ft 465 kts 357°
2026-04-15 09:32 33.54190 56.87181 36938 ft 465 kts 357°
2026-04-15 09:32 33.60581 56.88160 36990 ft 465 kts 357°
2026-04-15 09:33 33.66974 56.89176 36953 ft 465 kts 360°
2026-04-15 09:33 33.73338 56.90809 36948 ft 469 kts
2026-04-15 09:34 33.79693 56.92503 36973 ft 468 kts
2026-04-15 09:34 33.86044 56.94171 36993 ft 468 kts
2026-04-15 09:35 33.92397 56.95859 36964 ft 469 kts
2026-04-15 09:35 33.98745 56.97575 36961 ft 469 kts
2026-04-15 09:36 34.05104 56.99265 36954 ft 469 kts
2026-04-15 09:36 34.11456 57.00954 36957 ft 469 kts
2026-04-15 09:37 34.17811 57.02640 36956 ft 469 kts
2026-04-15 09:37 34.24173 57.04343 36956 ft 469 kts
2026-04-15 09:38 34.30525 57.06048 36954 ft 469 kts
2026-04-15 09:38 34.36879 57.07757 36983 ft 468 kts
2026-04-15 09:39 34.43226 57.09457 36964 ft 468 kts
2026-04-15 09:39 34.49572 57.11157 36971 ft 468 kts
2026-04-15 09:40 34.55931 57.12873 36996 ft 469 kts
2026-04-15 09:40 34.62282 57.14586 36978 ft 469 kts
2026-04-15 09:41 34.68631 57.16296 36968 ft 468 kts
2026-04-15 09:41 34.74987 57.18000 36963 ft 468 kts
2026-04-15 09:42 34.81337 57.19701 36994 ft 468 kts
2026-04-15 09:42 34.87689 57.21406 36968 ft 469 kts
2026-04-15 09:43 34.94046 57.23130 36963 ft 469 kts
2026-04-15 09:43 35.00403 57.24859 36966 ft 469 kts
2026-04-15 09:44 35.06763 57.26595 36972 ft 469 kts
2026-04-15 09:44 35.13127 57.28338 36962 ft 470 kts
2026-04-15 09:45 35.19495 57.30075 36960 ft 470 kts
2026-04-15 09:45 35.25859 57.31819 36958 ft 470 kts
2026-04-15 09:46 35.32213 57.33561 36976 ft 470 kts
2026-04-15 09:46 35.38578 57.35308 36964 ft 469 kts
2026-04-15 09:47 35.44936 57.37060 36963 ft 469 kts
2026-04-15 09:47 35.51297 57.38814 36999 ft 469 kts
2026-04-15 09:48 35.57651 57.40577 36979 ft 469 kts
2026-04-15 09:48 35.63994 57.42334 36963 ft 469 kts
2026-04-15 09:49 35.70340 57.44082 36977 ft 469 kts
2026-04-15 09:49 35.76681 57.45858 36986 ft 468 kts
2026-04-15 09:50 35.83014 57.47625 36983 ft 467 kts
2026-04-15 09:50 35.89364 57.49384 36979 ft 469 kts
2026-04-15 09:51 35.95723 57.51146 36984 ft 469 kts
2026-04-15 09:51 36.02084 57.52914 37004 ft 470 kts
2026-04-15 09:52 36.08452 57.54709 36988 ft 470 kts
2026-04-15 09:52 36.14813 57.56494 36985 ft 470 kts
2026-04-15 09:53 36.21114 57.58892 37001 ft 476 kts 12°
2026-04-15 09:53 36.27328 57.61657 36992 ft 476 kts 13°
2026-04-15 09:54 36.33561 57.64429 36990 ft 477 kts 13°
2026-04-15 09:54 36.39790 57.67191 36998 ft 476 kts 13°
2026-04-15 09:55 36.46018 57.69948 36996 ft 476 kts 13°
2026-04-15 09:55 36.52228 57.72728 37002 ft 476 kts 13°
2026-04-15 09:56 36.58452 57.75521 37008 ft 476 kts 13°
2026-04-15 09:57 36.67778 57.79688 37053 ft 475 kts 13°
2026-04-15 09:57 36.74005 57.82438 37032 ft 476 kts 13°
2026-04-15 09:58 36.80243 57.85210 37046 ft 483 kts 13°
2026-04-15 09:58 36.86626 57.88073 36606 ft 491 kts 13°
2026-04-15 09:58 36.89864 57.89527 35520 ft 498 kts 13°
2026-04-15 09:59 36.93146 57.90997 34401 ft 508 kts 13°
2026-04-15 09:59 36.96482 57.92499 33389 ft 511 kts 13°
2026-04-15 09:59 36.99793 57.93993 32757 ft 503 kts 13°
2026-04-15 09:59 37.03069 57.95472 31922 ft 496 kts 13°
2026-04-15 10:00 37.06282 57.96926 31170 ft 489 kts 13°
2026-04-15 10:00 37.09451 57.98360 30447 ft 482 kts 13°
2026-04-15 10:00 37.12577 57.99769 29620 ft 476 kts 13°
2026-04-15 10:00 37.15666 58.01161 28754 ft 471 kts 13°
2026-04-15 10:01 37.18729 58.02535 27995 ft 463 kts 13°
2026-04-15 10:01 37.21738 58.03886 27080 ft 460 kts 13°
2026-04-15 10:01 37.24739 58.05229 26253 ft 456 kts 13°
2026-04-15 10:01 37.27698 58.06560 25431 ft 452 kts 13°
2026-04-15 10:02 37.30644 58.07890 24636 ft 448 kts 13°
2026-04-15 10:02 37.33561 58.09207 23855 ft 445 kts 13°
2026-04-15 10:02 37.36461 58.10515 23048 ft 441 kts 14°
2026-04-15 10:02 37.39321 58.11808 22362 ft 435 kts 14°
2026-04-15 10:03 37.42146 58.13086 21713 ft 428 kts 14°
2026-04-15 10:03 37.44902 58.14332 21163 ft 420 kts 14°
2026-04-15 10:03 37.47630 58.15569 20624 ft 413 kts 14°
2026-04-15 10:03 37.50301 58.16781 20105 ft 403 kts 14°
2026-04-15 10:04 37.52903 58.17959 19666 ft 397 kts 14°
2026-04-15 10:04 37.55502 58.19131 19265 ft 398 kts 14°
2026-04-15 10:04 37.58106 58.20307 18826 ft 398 kts 14°
2026-04-15 10:04 37.60713 58.21492 18369 ft 400 kts 15°
2026-04-15 10:05 37.63331 58.22684 17913 ft 402 kts 15°
2026-04-15 10:05 37.65952 58.23887 17384 ft 400 kts 17°
2026-04-15 10:05 37.68459 58.25412 16891 ft 403 kts 30°
2026-04-15 10:05 37.70568 58.27722 16226 ft 403 kts 49°
2026-04-15 10:06 37.72278 58.30482 15714 ft 398 kts 53°
2026-04-15 10:06 37.73975 58.33206 15221 ft 391 kts 51°
2026-04-15 10:06 37.75704 58.35787 14702 ft 383 kts 49°
2026-04-15 10:06 37.77454 58.38289 14255 ft 379 kts 48°
2026-04-15 10:07 37.79207 58.40741 13783 ft 374 kts 48°
2026-04-15 10:07 37.80935 58.43138 13291 ft 369 kts 48°
2026-04-15 10:07 37.82653 58.45514 12852 ft 363 kts 48°
2026-04-15 10:07 37.84351 58.47864 12364 ft 359 kts 48°
2026-04-15 10:08 37.86020 58.50177 11893 ft 355 kts 48°
2026-04-15 10:08 37.87664 58.52458 11593 ft 345 kts 48°
2026-04-15 10:08 37.89248 58.54662 11392 ft 333 kts 48°
2026-04-15 10:08 37.90865 58.56674 11215 ft 321 kts 36°
2026-04-15 10:09 37.92826 58.57866 10915 ft 311 kts 11°
2026-04-15 10:09 37.94942 58.57939 10505 ft 303 kts 346°
2026-04-15 10:09 37.96855 58.56991 10107 ft 293 kts 324°
2026-04-15 10:09 37.98433 58.55387 9684 ft 290 kts 315°
2026-04-15 10:10 37.99924 58.53694 9284 ft 288 kts 316°
2026-04-15 10:10 38.01416 58.52021 8900 ft 286 kts 316°
2026-04-15 10:10 38.02904 58.50377 8495 ft 283 kts 317°
2026-04-15 10:10 38.04388 58.48749 8108 ft 281 kts 317°
2026-04-15 10:11 38.05862 58.47138 7715 ft 280 kts 317°
2026-04-15 10:11 38.07335 58.45533 7343 ft 278 kts 317°
2026-04-15 10:11 38.08657 58.43806 7057 ft 271 kts 303°
2026-04-15 10:11 38.09361 58.41624 6711 ft 268 kts 281°
2026-04-15 10:12 38.09674 58.39319 6416 ft 263 kts 278°
2026-04-15 10:12 38.09957 58.37034 6021 ft 263 kts 278°
2026-04-15 10:12 38.10251 58.34738 5634 ft 264 kts 278°
2026-04-15 10:12 38.10546 58.32480 5344 ft 261 kts 278°
2026-04-15 10:13 38.10848 58.30207 4994 ft 261 kts 278°
2026-04-15 10:13 38.11148 58.27949 4695 ft 260 kts 279°
2026-04-15 10:13 38.11451 58.25686 4308 ft 260 kts 279°
2026-04-15 10:13 38.11756 58.23436 3914 ft 259 kts 280°
2026-04-15 10:14 38.12058 58.21200 3552 ft 256 kts 281°
2026-04-15 10:14 38.12248 58.18951 3088 ft 259 kts 269°
2026-04-15 10:14 38.11677 58.16741 2891 ft 289 kts 239°
2026-04-15 10:14 38.10122 58.14840 2858 ft 339 kts 214°
2026-04-15 10:15 38.07918 58.13702 2800 ft 338 kts 193°
2026-04-15 10:15 38.05625 58.13682 2629 ft 327 kts 169°
2026-04-15 10:15 38.03596 58.14794 2476 ft 314 kts 143°
2026-04-15 10:15 38.02247 58.16791 2425 ft 291 kts 115°
2026-04-15 10:16 38.01792 58.19140 2439 ft 262 kts 92°
2026-04-15 10:16 38.01745 58.21342 2467 ft 242 kts 88°
2026-04-15 10:16 38.01742 58.23371 2463 ft 215 kts 88°
2026-04-15 10:16 38.01726 58.25145 2431 ft 188 kts 88°
2026-04-15 10:17 38.01697 58.26711 2308 ft 171 kts 89°
2026-04-15 10:17 38.01654 58.28160 2097 ft 160 kts 90°
2026-04-15 10:17 38.01585 58.29456 1874 ft 141 kts 91°
2026-04-15 10:17 38.01489 58.30634 1665 ft 132 kts 98°
2026-04-15 10:18 38.01139 58.31711 1479 ft 132 kts 116°
2026-04-15 10:18 38.00701 58.32708 1300 ft 129 kts 117°
2026-04-15 10:18 38.00274 58.33693 1125 ft 127 kts 118°
2026-04-15 10:18 37.99883 58.34623 876 ft 124 kts 118°
2026-04-15 10:19 37.99468 58.35551 717 ft 110 kts 118°
2026-04-15 10:19 37.99172 58.36243 697 ft 53 kts 123°
2026-04-15 10:19 37.99107 58.36372 697 ft 0 kts 120°
2026-04-15 10:20 37.99074 58.36449 700 ft 23 kts 118°
2026-04-15 10:20 37.98993 58.36647 700 ft 28 kts 116°
2026-04-15 10:20 37.98892 58.36759 699 ft 9 kts 211°
2026-04-15 10:20 37.98776 58.36681 701 ft 25 kts 200°
2026-04-15 10:21 37.98599 58.36646 701 ft 27 kts 181°
2026-04-15 10:21 37.98563 58.36649 700 ft 15 kts 168°
2026-04-15 10:21 37.98484 58.36680 706 ft 0 kts 161°
2026-04-15 10:21 37.98480 58.36682 704 ft 0 kts 161°